Time,TemperatureF,DewpointF,PressureIn,WindDirection,WindDirectionDegrees,WindSpeedMPH,WindSpeedGustMPH,Humidity,HourlyPrecipIn,Conditions,Clouds,dailyrainin,SoftwareType,DateUTC
2013-02-11 00:01:00,39.0,37.0,30.21,NE,53,0.0,0.0,93,0.01,,,0.12,,2013-02-11 05:01:00,
2013-02-11 00:12:00,38.0,36.0,30.19,ENE,71,1.0,4.0,93,0.01,,,0.12,,2013-02-11 05:12:00,
2013-02-11 00:22:00,38.0,36.0,30.19,ENE,71,1.0,4.0,93,0.01,,,0.12,,2013-02-11 05:22:00,
2013-02-11 00:32:00,38.0,36.0,30.19,NE,44,2.0,4.0,93,0.01,,,0.12,,2013-02-11 05:32:00,
2013-02-11 00:42:00,38.0,36.0,30.19,NE,44,2.0,4.0,93,0.01,,,0.12,,2013-02-11 05:42:00,
2013-02-11 00:53:00,38.0,36.0,30.19,NE,49,1.0,3.0,94,0.00,,,0.12,,2013-02-11 05:53:00,
2013-02-11 01:02:00,38.0,36.0,30.19,NE,52,1.0,2.0,94,0.00,,,0.12,,2013-02-11 06:02:00,
2013-02-11 01:12:00,38.0,36.0,30.19,NE,52,1.0,2.0,94,0.00,,,0.12,,2013-02-11 06:12:00,
2013-02-11 01:22:00,38.0,36.0,30.19,ENE,65,0.0,2.0,94,0.00,,,0.12,,2013-02-11 06:22:00,
2013-02-11 01:32:00,38.0,36.0,30.18,ENE,68,1.0,2.0,94,0.00,,,0.12,,2013-02-11 06:32:00,
2013-02-11 01:42:00,38.0,36.0,30.17,East,91,1.0,3.0,94,0.00,,,0.12,,2013-02-11 06:42:00,
2013-02-11 01:52:00,38.0,36.0,30.17,East,91,1.0,3.0,94,0.00,,,0.12,,2013-02-11 06:52:00,
2013-02-11 02:01:00,38.0,36.0,30.18,NE,53,0.0,5.0,94,0.00,,,0.12,,2013-02-11 07:01:00,
2013-02-11 02:11:00,38.0,36.0,30.18,North,11,0.0,2.0,94,0.00,,,0.12,,2013-02-11 07:11:00,
2013-02-11 02:22:00,38.0,36.0,30.18,North,11,0.0,2.0,94,0.00,,,0.12,,2013-02-11 07:22:00,
2013-02-11 02:32:00,38.0,37.0,30.17,North,11,1.0,1.0,95,0.00,,,0.12,,2013-02-11 07:32:00,
2013-02-11 02:42:00,38.0,37.0,30.15,East,96,2.0,3.0,95,0.00,,,0.12,,2013-02-11 07:42:00,
2013-02-11 02:52:00,38.0,37.0,30.15,East,96,2.0,3.0,95,0.00,,,0.12,,2013-02-11 07:52:00,
2013-02-11 03:01:00,38.0,37.0,30.14,ENE,76,2.0,6.0,95,0.00,,,0.12,,2013-02-11 08:01:00,
2013-02-11 03:11:00,38.0,37.0,30.15,ENE,59,0.0,2.0,95,0.00,,,0.12,,2013-02-11 08:11:00,
2013-02-11 03:21:00,38.0,37.0,30.15,ENE,59,0.0,2.0,95,0.00,,,0.12,,2013-02-11 08:21:00,
2013-02-11 03:32:00,38.0,37.0,30.13,East,85,1.0,3.0,95,0.00,,,0.12,,2013-02-11 08:32:00,
2013-02-11 03:42:00,39.0,38.0,30.13,East,85,0.0,0.0,95,0.02,,,0.14,,2013-02-11 08:42:00,
2013-02-11 03:52:00,39.0,38.0,30.13,East,85,0.0,0.0,95,0.02,,,0.14,,2013-02-11 08:52:00,
2013-02-11 04:01:00,39.0,38.0,30.12,East,85,1.0,2.0,95,0.03,,,0.15,,2013-02-11 09:01:00,
2013-02-11 04:12:00,39.0,38.0,30.12,East,85,1.0,2.0,95,0.03,,,0.15,,2013-02-11 09:12:00,
2013-02-11 04:21:00,39.0,38.0,30.11,ENE,74,1.0,2.0,96,0.03,,,0.15,,2013-02-11 09:21:00,
2013-02-11 04:32:00,39.0,38.0,30.11,ENE,74,1.0,2.0,96,0.03,,,0.15,,2013-02-11 09:32:00,
2013-02-11 04:42:00,39.0,38.0,30.11,ENE,74,1.0,2.0,96,0.03,,,0.15,,2013-02-11 09:42:00,
2013-02-11 04:51:00,39.0,38.0,30.11,ENE,74,0.0,0.0,96,0.03,,,0.16,,2013-02-11 09:51:00,
2013-02-11 05:02:00,39.0,38.0,30.11,ENE,74,0.0,0.0,96,0.03,,,0.16,,2013-02-11 10:02:00,
2013-02-11 05:11:00,39.0,38.0,30.11,ENE,74,0.0,0.0,96,0.03,,,0.16,,2013-02-11 10:11:00,
2013-02-11 05:21:00,39.0,38.0,30.11,South,191,0.0,1.0,96,0.03,,,0.18,,2013-02-11 10:21:00,
2013-02-11 05:32:00,39.0,38.0,30.11,South,191,0.0,0.0,96,0.02,,,0.18,,2013-02-11 10:32:00,
2013-02-11 05:42:00,39.0,38.0,30.11,South,191,0.0,0.0,96,0.02,,,0.18,,2013-02-11 10:42:00,
2013-02-11 05:52:00,39.0,38.0,30.11,South,191,0.0,1.0,96,0.02,,,0.18,,2013-02-11 10:52:00,
2013-02-11 06:02:00,39.0,38.0,30.11,South,191,1.0,2.0,96,0.02,,,0.19,,2013-02-11 11:02:00,
2013-02-11 06:11:00,39.0,38.0,30.11,South,191,1.0,2.0,96,0.02,,,0.19,,2013-02-11 11:11:00,
2013-02-11 06:22:00,39.0,38.0,30.12,South,191,1.0,2.0,96,0.01,,,0.19,,2013-02-11 11:22:00,
2013-02-11 06:32:00,39.0,38.0,30.11,South,191,1.0,2.0,97,0.01,,,0.19,,2013-02-11 11:32:00,
2013-02-11 06:42:00,39.0,38.0,30.09,South,184,1.0,2.0,97,0.02,,,0.20,,2013-02-11 11:42:00,
2013-02-11 06:52:00,39.0,38.0,30.09,South,184,1.0,2.0,97,0.02,,,0.20,,2013-02-11 11:52:00,
2013-02-11 07:03:00,39.0,38.0,30.08,SSE,167,1.0,2.0,97,0.01,,,0.20,,2013-02-11 12:03:00,
2013-02-11 07:12:00,39.0,38.0,30.08,SSE,167,1.0,2.0,97,0.01,,,0.20,,2013-02-11 12:12:00,
2013-02-11 07:22:00,39.0,38.0,30.08,SSE,151,1.0,2.0,97,0.01,,,0.20,,2013-02-11 12:22:00,
2013-02-11 07:32:00,39.0,38.0,30.09,ESE,117,0.0,2.0,97,0.00,,,0.20,,2013-02-11 12:32:00,
2013-02-11 07:42:00,40.0,39.0,30.09,ESE,117,0.0,0.0,97,0.00,,,0.20,,2013-02-11 12:42:00,
2013-02-11 07:52:00,40.0,39.0,30.09,ESE,117,0.0,0.0,97,0.00,,,0.20,,2013-02-11 12:52:00,
2013-02-11 08:02:00,40.0,39.0,30.09,ESE,117,0.0,1.0,97,0.00,,,0.20,,2013-02-11 13:02:00,
2013-02-11 08:12:00,40.0,39.0,30.08,SE,124,1.0,2.0,97,0.00,,,0.20,,2013-02-11 13:12:00,
2013-02-11 08:22:00,40.0,39.0,30.08,SE,124,1.0,2.0,97,0.00,,,0.20,,2013-02-11 13:22:00,
2013-02-11 08:33:00,40.0,39.0,30.08,SSW,201,2.0,3.0,97,0.00,,,0.20,,2013-02-11 13:33:00,
2013-02-11 08:42:00,40.0,39.0,30.08,SSW,201,2.0,3.0,97,0.00,,,0.20,,2013-02-11 13:42:00,
2013-02-11 08:52:00,40.0,39.0,30.09,SW,217,1.0,3.0,97,0.00,,,0.20,,2013-02-11 13:52:00,
2013-02-11 09:02:00,41.0,40.0,30.08,SW,222,0.0,1.0,97,0.00,,,0.20,,2013-02-11 14:02:00,
2013-02-11 09:12:00,41.0,40.0,30.08,SW,222,0.0,1.0,97,0.00,,,0.20,,2013-02-11 14:12:00,
2013-02-11 09:22:00,41.0,40.0,30.08,SW,222,1.0,2.0,97,0.00,,,0.20,,2013-02-11 14:22:00,
2013-02-11 09:33:00,41.0,40.0,30.08,South,171,1.0,4.0,97,0.00,,,0.20,,2013-02-11 14:33:00,
2013-02-11 09:42:00,41.0,40.0,30.07,SSE,165,1.0,2.0,97,0.00,,,0.20,,2013-02-11 14:42:00,
2013-02-11 09:53:00,41.0,40.0,30.07,SSE,165,1.0,2.0,97,0.00,,,0.20,,2013-02-11 14:53:00,
2013-02-11 10:02:00,42.0,41.0,30.07,SW,227,1.0,4.0,97,0.00,,,0.20,,2013-02-11 15:02:00,
2013-02-11 10:11:00,42.0,41.0,30.07,SW,227,1.0,4.0,97,0.00,,,0.20,,2013-02-11 15:11:00,
2013-02-11 10:22:00,42.0,41.0,30.06,South,172,2.0,4.0,97,0.00,,,0.20,,2013-02-11 15:22:00,
2013-02-11 10:32:00,43.0,42.0,30.05,SSW,205,2.0,6.0,97,0.00,,,0.20,,2013-02-11 15:32:00,
2013-02-11 10:42:00,43.0,42.0,30.07,SW,229,3.0,4.0,97,0.00,,,0.20,,2013-02-11 15:42:00,
2013-02-11 10:52:00,43.0,42.0,30.07,SW,229,3.0,4.0,97,0.00,,,0.20,,2013-02-11 15:52:00,
2013-02-11 11:02:00,44.0,43.0,30.06,South,190,2.0,4.0,97,0.00,,,0.20,,2013-02-11 16:02:00,
2013-02-11 11:12:00,44.0,43.0,30.06,South,190,2.0,4.0,97,0.00,,,0.20,,2013-02-11 16:12:00,
2013-02-11 11:22:00,45.0,44.0,30.04,SE,144,1.0,3.0,97,0.00,,,0.20,,2013-02-11 16:22:00,
2013-02-11 11:32:00,45.0,44.0,30.04,SSE,164,1.0,3.0,97,0.00,,,0.20,,2013-02-11 16:32:00,
2013-02-11 11:42:00,46.0,45.0,30.03,SSE,149,0.0,4.0,97,0.00,,,0.20,,2013-02-11 16:42:00,
2013-02-11 11:53:00,46.0,45.0,30.03,SSE,149,0.0,4.0,97,0.00,,,0.20,,2013-02-11 16:53:00,
2013-02-11 12:02:00,48.0,47.0,30.03,SW,218,6.0,8.0,97,0.00,,,0.20,,2013-02-11 17:02:00,
2013-02-11 12:11:00,48.0,47.0,30.03,SW,218,6.0,8.0,97,0.00,,,0.20,,2013-02-11 17:11:00,
2013-02-11 12:22:00,48.0,47.0,30.03,South,186,4.0,8.0,97,0.00,,,0.20,,2013-02-11 17:22:00,
2013-02-11 12:32:00,49.0,48.0,30.02,SW,236,7.0,10.0,96,0.00,,,0.20,,2013-02-11 17:32:00,
2013-02-11 12:42:00,49.0,48.0,30.02,SW,236,7.0,10.0,96,0.00,,,0.20,,2013-02-11 17:42:00,
2013-02-11 12:52:00,49.0,48.0,30.02,South,191,4.0,9.0,95,0.00,,,0.20,,2013-02-11 17:52:00,
2013-02-11 13:02:00,48.0,47.0,30.01,WSW,243,3.0,11.0,95,0.00,,,0.20,,2013-02-11 18:02:00,
2013-02-11 13:11:00,48.0,47.0,30.01,WSW,243,3.0,11.0,95,0.00,,,0.20,,2013-02-11 18:11:00,
2013-02-11 13:22:00,49.0,48.0,29.98,SSW,208,2.0,8.0,95,0.00,,,0.20,,2013-02-11 18:22:00,
2013-02-11 13:32:00,49.0,48.0,30.00,SSW,211,3.0,4.0,95,0.00,,,0.20,,2013-02-11 18:32:00,
2013-02-11 13:42:00,49.0,48.0,29.99,South,188,0.0,2.0,95,0.00,,,0.20,,2013-02-11 18:42:00,
2013-02-11 13:54:00,49.0,48.0,29.99,South,188,0.0,2.0,95,0.00,,,0.20,,2013-02-11 18:54:00,
2013-02-11 14:02:00,49.0,48.0,29.99,SSE,148,1.0,2.0,95,0.00,,,0.20,,2013-02-11 19:02:00,
2013-02-11 14:11:00,50.0,49.0,29.99,South,181,2.0,3.0,95,0.00,,,0.20,,2013-02-11 19:11:00,
2013-02-11 14:22:00,50.0,49.0,29.99,South,181,2.0,3.0,95,0.00,,,0.20,,2013-02-11 19:22:00,
2013-02-11 14:32:00,50.0,48.0,30.00,SW,232,3.0,4.0,94,0.00,,,0.20,,2013-02-11 19:32:00,
2013-02-11 14:42:00,50.0,48.0,30.00,SW,232,3.0,4.0,94,0.00,,,0.20,,2013-02-11 19:42:00,
2013-02-11 14:51:00,50.0,48.0,30.00,SSW,196,1.0,5.0,94,0.00,,,0.20,,2013-02-11 19:51:00,
2013-02-11 15:02:00,51.0,49.0,29.98,SSE,168,1.0,3.0,94,0.00,,,0.20,,2013-02-11 20:02:00,
2013-02-11 15:11:00,51.0,49.0,29.97,SE,137,0.0,3.0,94,0.00,,,0.20,,2013-02-11 20:11:00,
2013-02-11 15:22:00,51.0,49.0,29.97,SE,137,0.0,3.0,94,0.00,,,0.20,,2013-02-11 20:22:00,
2013-02-11 15:32:00,52.0,50.0,29.97,SE,134,2.0,3.0,94,0.00,,,0.20,,2013-02-11 20:32:00,
2013-02-11 15:42:00,52.0,50.0,29.97,SE,138,1.0,4.0,93,0.00,,,0.20,,2013-02-11 20:42:00,
2013-02-11 15:52:00,52.0,50.0,29.97,SE,138,1.0,4.0,93,0.00,,,0.20,,2013-02-11 20:52:00,
2013-02-11 16:02:00,52.0,50.0,29.97,SE,138,1.0,4.0,93,0.00,,,0.20,,2013-02-11 21:02:00,
2013-02-11 16:12:00,52.0,50.0,29.97,SW,222,1.0,3.0,94,0.00,,,0.20,,2013-02-11 21:12:00,
2013-02-11 16:22:00,52.0,50.0,29.97,SW,222,1.0,3.0,94,0.00,,,0.20,,2013-02-11 21:22:00,
2013-02-11 16:32:00,52.0,50.0,29.97,SW,222,0.0,2.0,94,0.00,,,0.20,,2013-02-11 21:32:00,
2013-02-11 16:42:00,53.0,51.0,29.97,SW,217,1.0,2.0,93,0.00,,,0.20,,2013-02-11 21:42:00,
2013-02-11 16:52:00,53.0,51.0,29.97,SW,217,1.0,2.0,93,0.00,,,0.20,,2013-02-11 21:52:00,
2013-02-11 17:02:00,53.0,51.0,29.97,SW,236,3.0,4.0,94,0.00,,,0.20,,2013-02-11 22:02:00,
2013-02-11 17:12:00,53.0,51.0,29.96,WSW,237,2.0,4.0,94,0.00,,,0.20,,2013-02-11 22:12:00,
2013-02-11 17:22:00,53.0,51.0,29.96,WSW,237,2.0,4.0,94,0.00,,,0.20,,2013-02-11 22:22:00,
2013-02-11 17:32:00,53.0,51.0,29.96,WSW,244,3.0,5.0,94,0.00,,,0.20,,2013-02-11 22:32:00,
2013-02-11 17:42:00,53.0,51.0,29.96,WSW,244,3.0,5.0,94,0.00,,,0.20,,2013-02-11 22:42:00,
2013-02-11 17:52:00,53.0,50.0,29.95,SW,236,3.0,6.0,88,0.00,,,0.20,,2013-02-11 22:52:00,
2013-02-11 18:02:00,53.0,49.0,29.96,NNW,338,1.0,2.0,87,0.00,,,0.20,,2013-02-11 23:02:00,
2013-02-11 18:11:00,53.0,49.0,29.96,NNW,338,1.0,2.0,87,0.00,,,0.20,,2013-02-11 23:11:00,
2013-02-11 18:22:00,52.0,50.0,29.97,East,86,1.0,3.0,92,0.00,,,0.20,,2013-02-11 23:22:00,
2013-02-11 18:32:00,51.0,49.0,29.97,East,86,1.0,2.0,93,0.00,,,0.20,,2013-02-11 23:32:00,
2013-02-11 18:42:00,51.0,49.0,29.97,East,86,1.0,2.0,93,0.00,,,0.20,,2013-02-11 23:42:00,
2013-02-11 18:52:00,51.0,49.0,29.97,East,89,1.0,3.0,92,0.00,,,0.20,,2013-02-11 23:52:00,
2013-02-11 19:02:00,50.0,48.0,29.98,ENE,59,2.0,3.0,92,0.00,,,0.20,,2013-02-12 00:02:00,
2013-02-11 19:12:00,50.0,48.0,29.98,ENE,59,2.0,3.0,92,0.00,,,0.20,,2013-02-12 00:12:00,
2013-02-11 19:22:00,50.0,48.0,29.98,ENE,59,2.0,5.0,93,0.00,,,0.20,,2013-02-12 00:22:00,
2013-02-11 19:32:00,50.0,47.0,29.99,SSE,150,1.0,7.0,91,0.00,,,0.20,,2013-02-12 00:32:00,
2013-02-11 19:42:00,50.0,47.0,29.99,SSE,150,1.0,7.0,91,0.00,,,0.20,,2013-02-12 00:42:00,
2013-02-11 19:52:00,50.0,45.0,29.99,East,83,2.0,5.0,84,0.00,,,0.20,,2013-02-12 00:52:00,
2013-02-11 20:02:00,49.0,43.0,29.99,SE,137,2.0,3.0,79,0.00,,,0.20,,2013-02-12 01:02:00,
2013-02-11 20:11:00,49.0,43.0,29.99,SE,137,2.0,3.0,79,0.00,,,0.20,,2013-02-12 01:11:00,
2013-02-11 20:22:00,49.0,41.0,30.00,NNE,31,1.0,2.0,73,0.00,,,0.20,,2013-02-12 01:22:00,
2013-02-11 20:32:00,49.0,44.0,30.00,NNE,31,0.0,2.0,84,0.00,,,0.20,,2013-02-12 01:32:00,
2013-02-11 20:42:00,47.0,43.0,29.99,NW,316,0.0,1.0,85,0.00,,,0.20,,2013-02-12 01:42:00,
2013-02-11 20:52:00,47.0,43.0,29.99,NW,316,0.0,1.0,85,0.00,,,0.20,,2013-02-12 01:52:00,
2013-02-11 21:02:00,47.0,40.0,30.00,West,268,0.0,0.0,76,0.00,,,0.20,,2013-02-12 02:02:00,
2013-02-11 21:12:00,48.0,38.0,29.99,West,277,1.0,3.0,69,0.00,,,0.20,,2013-02-12 02:12:00,
2013-02-11 21:22:00,48.0,38.0,29.99,West,277,1.0,3.0,69,0.00,,,0.20,,2013-02-12 02:22:00,
2013-02-11 21:32:00,49.0,40.0,29.99,WSW,252,1.0,3.0,72,0.00,,,0.10,,2013-02-12 02:32:00,
2013-02-11 21:42:00,49.0,40.0,29.99,WSW,252,1.0,3.0,72,0.00,,,0.10,,2013-02-12 02:42:00,
2013-02-11 21:52:00,47.0,41.0,29.99,West,265,0.0,1.0,81,0.00,,,0.10,,2013-02-12 02:52:00,
2013-02-11 22:02:00,45.0,40.0,29.99,West,269,1.0,1.0,84,0.00,,,0.10,,2013-02-12 03:02:00,
2013-02-11 22:11:00,44.0,39.0,30.00,West,269,1.0,2.0,84,0.00,,,0.09,,2013-02-12 03:11:00,
2013-02-11 22:21:00,44.0,39.0,30.00,West,269,1.0,2.0,84,0.00,,,0.09,,2013-02-12 03:21:00,
2013-02-11 22:32:00,45.0,36.0,30.00,WNW,283,0.0,2.0,71,0.00,,,0.09,,2013-02-12 03:32:00,
2013-02-11 22:42:00,46.0,36.0,30.00,WSW,238,1.0,3.0,68,0.00,,,0.09,,2013-02-12 03:42:00,
2013-02-11 22:52:00,46.0,36.0,30.00,WSW,238,1.0,3.0,68,0.00,,,0.09,,2013-02-12 03:52:00,
2013-02-11 23:01:00,45.0,38.0,30.01,WSW,240,2.0,3.0,76,0.00,,,0.09,,2013-02-12 04:01:00,
2013-02-11 23:11:00,45.0,38.0,30.01,WSW,240,2.0,3.0,76,0.00,,,0.09,,2013-02-12 04:11:00,
2013-02-11 23:21:00,44.0,38.0,30.00,SW,234,1.0,2.0,80,0.00,,,0.09,,2013-02-12 04:21:00,
2013-02-11 23:31:00,44.0,38.0,30.00,SW,234,1.0,2.0,80,0.00,,,0.09,,2013-02-12 04:31:00,
2013-02-11 23:42:00,44.0,38.0,30.00,SW,234,1.0,2.0,80,0.00,,,0.09,,2013-02-12 04:42:00,
2013-02-11 23:51:00,44.0,36.0,30.01,WNW,289,1.0,2.0,72,0.00,,,0.09,,2013-02-12 04:51:00,